Location: Doux
(49.5045°N, 4.4321°E)
Time: 14:54:53
(UTC+00:00)

Meteor 1-4 Rocket - Pass Details

Date: 23 May 2024
Orbit: 358 x 379 km, 81.2° (Epoch: 16 June)

Event Time Altitude Azimuth Distance (km) Brightness Sun altitude
Exits shadow 00:53:28 31° 116° (ESE) 668 3.2 -17.9°
Maximum altitude 00:53:54 33° 96° (E) 640 3.2 -17.9°
Drops below altitude 10° 00:56:35 10° 30° (NNE) 1,355 6.1 -17.8°
Sets 00:58:40 0° 20° (NNE) 2,211 7.7 -17.7°
